Location: Alfortville
(48.8058°N, 2.4204°E)
Time: 21:11:49
(UTC+00:00)

Cosmos 1980 Rocket - Visible Passes

Search period start: 02 December 2023 00:00
Search period end: 12 December 2023 00:00
Orbit: 828 x 850 km, 71.0° (Epoch: 02 December)

Date Brightness Start Highest point End Pass type
(mag) Time Alt. Az. Time Alt. Az. Time Alt. Az.
02 Dec 4.2 04:04:27 17° N 04:04:27 17° N 04:05:55 10° NNE visible
02 Dec 4.1 05:46:13 11° NNW 05:46:29 11° NNW 05:48:14 10° N visible
03 Dec 4.5 03:49:11 14° NNE 03:49:11 14° NNE 03:50:05 10° NNE visible
03 Dec 4.2 05:30:57 12° NNW 05:30:57 12° NNW 05:32:31 10° N visible
04 Dec 4.7 03:33:52 12° NNE 03:33:52 12° NNE 03:34:15 10° NNE visible
04 Dec 4.3 05:15:38 12° NNW 05:15:38 12° NNW 05:16:47 10° N visible
05 Dec 4.4 05:00:18 11° N 05:00:18 11° N 05:01:03 10° N visible
06 Dec 4.5 04:44:56 11° N 04:44:56 11° N 04:45:18 10° N visible
